Time,TemperatureF,DewpointF,PressureIn,WindDirection,WindDirectionDegrees,WindSpeedMPH,WindSpeedGustMPH,Humidity,HourlyPrecipIn,Conditions,Clouds,dailyrainin,SolarRadiationWatts/m^2,SoftwareType,DateUTC
2013-06-28 00:00:00,66.7,61.4,29.68,WNW,290,0.0,1.0,83,0.00,,---,0.00,0.00,VWS V14.01,2013-06-28 05:00:00,
2013-06-28 00:01:00,66.6,61.3,29.68,WNW,290,0.0,0.0,83,0.00,,---,0.00,0.00,VWS V14.01,2013-06-28 05:01:00,
2013-06-28 00:06:00,66.4,61.1,29.67,WNW,290,0.0,0.0,83,0.00,,---,0.00,0.00,VWS V14.01,2013-06-28 05:06:00,
2013-06-28 00:11:00,66.2,60.9,29.67,WNW,290,0.0,0.0,83,0.00,,---,0.00,0.00,VWS V14.01,2013-06-28 05:11:00,
2013-06-28 00:16:00,66.0,60.7,29.67,WNW,290,0.0,0.0,83,0.00,,---,0.00,0.00,VWS V14.01,2013-06-28 05:16:00,
2013-06-28 00:21:00,65.9,60.6,29.67,WNW,290,0.0,0.0,83,0.00,,---,0.00,0.00,VWS V14.01,2013-06-28 05:21:00,
2013-06-28 00:26:00,65.8,60.5,29.67,WNW,290,0.0,0.0,83,0.00,,---,0.00,0.00,VWS V14.01,2013-06-28 05:26:00,
2013-06-28 00:31:00,65.7,60.4,29.67,WNW,290,0.0,0.0,83,0.00,,---,0.00,0.00,VWS V14.01,2013-06-28 05:31:00,
2013-06-28 00:36:00,65.7,60.4,29.67,WNW,290,0.0,0.0,83,0.00,,---,0.00,0.00,VWS V14.01,2013-06-28 05:36:00,
2013-06-28 00:41:00,65.8,60.5,29.67,WNW,290,0.0,0.0,83,0.00,,---,0.00,0.00,VWS V14.01,2013-06-28 05:41:00,
2013-06-28 00:46:00,65.8,60.5,29.67,WNW,291,0.0,0.0,83,0.00,,---,0.00,0.00,VWS V14.01,2013-06-28 05:46:00,
2013-06-28 00:51:00,65.7,60.4,29.67,WNW,290,0.0,0.0,83,0.00,,---,0.00,0.00,VWS V14.01,2013-06-28 05:51:00,
2013-06-28 00:56:00,65.6,60.0,29.67,WNW,290,0.0,0.0,82,0.00,,---,0.00,0.00,VWS V14.01,2013-06-28 05:56:00,
2013-06-28 01:00:00,65.4,60.1,29.67,WNW,297,2.0,2.0,83,0.00,,---,0.00,0.00,VWS V14.01,2013-06-28 06:00:00,
2013-06-28 01:01:00,65.4,60.1,29.67,NW,315,1.0,2.0,83,0.00,,---,0.00,0.00,VWS V14.01,2013-06-28 06:01:00,
2013-06-28 01:06:00,65.3,59.7,29.67,North,5,2.0,2.0,82,0.00,,---,0.00,0.00,VWS V14.01,2013-06-28 06:06:00,
2013-06-28 01:11:00,65.2,59.6,29.67,ENE,64,0.0,3.0,82,0.00,,---,0.00,0.00,VWS V14.01,2013-06-28 06:11:00,
2013-06-28 01:16:00,65.2,59.6,29.67,ENE,64,1.0,3.0,82,0.00,,---,0.00,0.00,VWS V14.01,2013-06-28 06:16:00,
2013-06-28 01:21:00,65.2,59.9,29.67,ENE,64,0.0,3.0,83,0.00,,---,0.00,0.00,VWS V14.01,2013-06-28 06:21:00,
2013-06-28 01:26:00,65.0,59.4,29.67,ENE,64,0.0,3.0,82,0.00,,---,0.00,0.00,VWS V14.01,2013-06-28 06:26:00,
2013-06-28 01:31:00,65.0,59.7,29.67,ENE,64,0.0,3.0,83,0.00,,---,0.00,0.00,VWS V14.01,2013-06-28 06:31:00,
2013-06-28 01:36:00,64.9,59.6,29.67,ENE,64,0.0,3.0,83,0.00,,---,0.00,0.00,VWS V14.01,2013-06-28 06:36:00,
2013-06-28 01:41:00,64.6,59.3,29.67,ENE,64,0.0,3.0,83,0.00,,---,0.00,0.00,VWS V14.01,2013-06-28 06:41:00,
2013-06-28 01:46:00,64.6,59.7,29.67,ENE,64,0.0,3.0,84,0.00,,---,0.00,0.00,VWS V14.01,2013-06-28 06:46:00,
2013-06-28 01:51:00,64.6,60.0,29.67,ENE,64,1.0,3.0,85,0.00,,---,0.00,0.00,VWS V14.01,2013-06-28 06:51:00,
2013-06-28 01:56:00,64.5,59.6,29.67,ENE,64,0.0,3.0,84,0.00,,---,0.00,0.00,VWS V14.01,2013-06-28 06:56:00,
2013-06-28 02:00:00,64.4,59.5,29.67,ENE,64,0.0,3.0,84,0.00,,---,0.00,0.00,VWS V14.01,2013-06-28 07:00:00,
2013-06-28 02:01:00,64.4,59.5,29.67,ENE,64,0.0,2.0,84,0.00,,---,0.00,0.00,VWS V14.01,2013-06-28 07:01:00,
2013-06-28 02:06:00,64.5,59.9,29.66,ENE,64,0.0,2.0,85,0.00,,---,0.00,0.00,VWS V14.01,2013-06-28 07:06:00,
2013-06-28 02:11:00,64.2,59.9,29.66,ENE,64,0.0,2.0,86,0.00,,---,0.00,0.00,VWS V14.01,2013-06-28 07:11:00,
2013-06-28 02:16:00,64.0,59.7,29.66,ENE,64,0.0,2.0,86,0.00,,---,0.00,0.00,VWS V14.01,2013-06-28 07:16:00,
2013-06-28 02:21:00,63.8,59.5,29.66,ENE,64,0.0,2.0,86,0.00,,---,0.00,0.00,VWS V14.01,2013-06-28 07:21:00,
2013-06-28 02:26:00,63.6,59.7,29.66,ENE,64,0.0,2.0,87,0.00,,---,0.00,0.00,VWS V14.01,2013-06-28 07:26:00,
2013-06-28 02:31:00,63.3,59.4,29.66,ENE,64,0.0,2.0,87,0.00,,---,0.00,0.00,VWS V14.01,2013-06-28 07:31:00,
2013-06-28 02:36:00,63.1,59.2,29.66,ENE,64,0.0,2.0,87,0.00,,---,0.00,0.00,VWS V14.01,2013-06-28 07:36:00,
2013-06-28 02:41:00,63.0,59.4,29.66,ENE,65,0.0,2.0,88,0.00,,---,0.00,0.00,VWS V14.01,2013-06-28 07:41:00,
2013-06-28 02:46:00,62.8,59.2,29.65,ENE,64,0.0,2.0,88,0.00,,---,0.00,0.00,VWS V14.01,2013-06-28 07:46:00,
2013-06-28 02:51:00,62.7,58.8,29.65,ENE,64,0.0,2.0,87,0.00,,---,0.00,0.00,VWS V14.01,2013-06-28 07:51:00,
2013-06-28 02:56:00,62.7,58.8,29.65,ENE,64,0.0,2.0,87,0.00,,---,0.00,0.00,VWS V14.01,2013-06-28 07:56:00,
2013-06-28 03:00:00,62.6,58.7,29.65,ENE,64,0.0,2.0,87,0.00,,---,0.00,0.00,VWS V14.01,2013-06-28 08:00:00,
2013-06-28 03:01:00,62.6,58.7,29.65,ENE,64,0.0,0.0,87,0.00,,---,0.00,0.00,VWS V14.01,2013-06-28 08:01:00,
2013-06-28 03:06:00,62.6,59.0,29.65,ENE,64,0.0,0.0,88,0.00,,---,0.00,0.00,VWS V14.01,2013-06-28 08:06:00,
2013-06-28 03:11:00,62.7,59.1,29.65,ENE,64,0.0,0.0,88,0.00,,---,0.00,0.00,VWS V14.01,2013-06-28 08:11:00,
2013-06-28 03:16:00,62.7,59.1,29.65,ENE,64,1.0,1.0,88,0.00,,---,0.00,0.00,VWS V14.01,2013-06-28 08:16:00,
2013-06-28 03:21:00,62.6,59.0,29.65,ENE,64,0.0,1.0,88,0.00,,---,0.00,0.00,VWS V14.01,2013-06-28 08:21:00,
2013-06-28 03:26:00,62.5,58.9,29.65,ENE,64,0.0,1.0,88,0.00,,---,0.00,0.00,VWS V14.01,2013-06-28 08:26:00,
2013-06-28 03:31:00,62.3,58.7,29.64,ENE,64,0.0,1.0,88,0.00,,---,0.00,0.00,VWS V14.01,2013-06-28 08:31:00,
2013-06-28 03:36:00,62.1,58.8,29.65,ENE,64,0.0,1.0,89,0.00,,---,0.00,0.00,VWS V14.01,2013-06-28 08:36:00,
2013-06-28 03:41:00,61.9,58.6,29.64,ENE,64,0.0,1.0,89,0.00,,---,0.00,0.00,VWS V14.01,2013-06-28 08:41:00,
2013-06-28 03:46:00,61.9,58.9,29.65,ENE,64,0.0,1.0,90,0.00,,---,0.00,0.00,VWS V14.01,2013-06-28 08:46:00,
2013-06-28 03:51:00,61.7,58.7,29.65,ENE,64,0.0,1.0,90,0.00,,---,0.00,0.00,VWS V14.01,2013-06-28 08:51:00,
2013-06-28 03:56:00,61.6,58.6,29.65,ENE,64,0.0,1.0,90,0.00,,---,0.00,0.00,VWS V14.01,2013-06-28 08:56:00,
2013-06-28 04:00:00,61.5,58.5,29.64,ENE,64,0.0,1.0,90,0.00,,---,0.00,0.00,VWS V14.01,2013-06-28 09:00:00,
2013-06-28 04:01:00,61.4,58.5,29.64,ENE,64,0.0,0.0,90,0.00,,---,0.00,0.00,VWS V14.01,2013-06-28 09:01:00,
2013-06-28 04:06:00,61.4,58.5,29.64,ENE,64,0.0,1.0,90,0.00,,---,0.00,0.00,VWS V14.01,2013-06-28 09:06:00,
2013-06-28 04:11:00,61.3,58.3,29.65,ENE,64,0.0,1.0,90,0.00,,---,0.00,0.00,VWS V14.01,2013-06-28 09:11:00,
2013-06-28 04:16:00,61.2,58.2,29.65,ENE,64,0.0,1.0,90,0.00,,---,0.00,0.00,VWS V14.01,2013-06-28 09:16:00,
2013-06-28 04:21:00,61.2,58.6,29.65,ENE,65,0.0,1.0,91,0.00,,---,0.00,0.00,VWS V14.01,2013-06-28 09:21:00,
2013-06-28 04:26:00,61.1,58.5,29.65,ENE,64,0.0,2.0,91,0.00,,---,0.00,0.00,VWS V14.01,2013-06-28 09:26:00,
2013-06-28 04:31:00,61.1,58.5,29.65,NNW,330,1.0,4.0,91,0.00,,---,0.00,0.00,VWS V14.01,2013-06-28 09:31:00,
2013-06-28 04:36:00,61.1,58.8,29.65,NNW,330,0.0,4.0,92,0.00,,---,0.00,0.00,VWS V14.01,2013-06-28 09:36:00,
2013-06-28 04:41:00,61.0,58.7,29.65,NNW,330,0.0,4.0,92,0.00,,---,0.00,0.00,VWS V14.01,2013-06-28 09:41:00,
2013-06-28 04:46:00,60.9,58.6,29.65,NNW,330,0.0,4.0,92,0.00,,---,0.00,0.00,VWS V14.01,2013-06-28 09:46:00,
2013-06-28 04:51:00,60.8,58.5,29.65,NNW,330,0.0,4.0,92,0.00,,---,0.00,0.00,VWS V14.01,2013-06-28 09:51:00,
2013-06-28 04:56:00,60.7,58.4,29.65,NNW,330,0.0,4.0,92,0.00,,---,0.00,0.00,VWS V14.01,2013-06-28 09:56:00,
2013-06-28 05:00:00,60.6,58.3,29.65,NNW,330,0.0,4.0,92,0.00,,---,0.00,0.00,VWS V14.01,2013-06-28 10:00:00,
2013-06-28 05:01:00,60.5,58.2,29.65,NNW,330,0.0,0.0,92,0.00,,---,0.00,0.00,VWS V14.01,2013-06-28 10:01:00,
2013-06-28 05:06:00,60.5,58.2,29.65,NNW,330,0.0,0.0,92,0.00,,---,0.00,0.00,VWS V14.01,2013-06-28 10:06:00,
2013-06-28 05:11:00,60.4,58.1,29.65,NNW,330,0.0,0.0,92,0.00,,---,0.00,0.00,VWS V14.01,2013-06-28 10:11:00,
2013-06-28 05:16:00,60.4,58.1,29.65,NNW,330,0.0,0.0,92,0.00,,---,0.00,0.00,VWS V14.01,2013-06-28 10:16:00,
2013-06-28 05:21:00,60.3,58.3,29.65,NNW,330,0.0,0.0,93,0.00,,---,0.00,0.00,VWS V14.01,2013-06-28 10:21:00,
2013-06-28 05:26:00,60.3,58.3,29.65,NNW,330,0.0,0.0,93,0.00,,---,0.00,0.00,VWS V14.01,2013-06-28 10:26:00,
2013-06-28 05:31:00,60.3,58.3,29.65,NNW,330,0.0,0.0,93,0.00,,---,0.00,5.00,VWS V14.01,2013-06-28 10:31:00,
2013-06-28 05:36:00,60.3,58.3,29.65,NNW,330,0.0,1.0,93,0.00,,---,0.00,7.00,VWS V14.01,2013-06-28 10:36:00,
2013-06-28 05:41:00,60.3,58.3,29.65,NNW,330,1.0,1.0,93,0.00,,---,0.00,9.00,VWS V14.01,2013-06-28 10:41:00,
2013-06-28 05:46:00,60.2,58.2,29.65,NNW,330,0.0,1.0,93,0.00,,---,0.00,11.00,VWS V14.01,2013-06-28 10:46:00,
2013-06-28 05:51:00,60.1,58.1,29.65,NNW,330,0.0,1.0,93,0.00,,---,0.00,12.00,VWS V14.01,2013-06-28 10:51:00,
2013-06-28 05:56:00,60.1,58.1,29.66,NNW,330,0.0,1.0,93,0.00,,---,0.00,14.00,VWS V14.01,2013-06-28 10:56:00,
2013-06-28 06:00:00,60.1,58.1,29.66,NNW,330,0.0,1.0,93,0.00,,---,0.00,16.00,VWS V14.01,2013-06-28 11:00:00,
2013-06-28 06:01:00,60.2,58.2,29.66,NNW,330,0.0,0.0,93,0.00,,---,0.00,16.00,VWS V14.01,2013-06-28 11:01:00,
2013-06-28 06:06:00,60.2,58.2,29.66,NNW,330,0.0,0.0,93,0.00,,---,0.00,18.00,VWS V14.01,2013-06-28 11:06:00,
2013-06-28 06:11:00,60.2,58.2,29.66,NNW,330,0.0,0.0,93,0.00,,---,0.00,19.00,VWS V14.01,2013-06-28 11:11:00,
2013-06-28 06:16:00,60.4,58.4,29.66,NNW,330,0.0,0.0,93,0.00,,---,0.00,21.00,VWS V14.01,2013-06-28 11:16:00,
2013-06-28 06:21:00,60.5,58.5,29.66,NNW,330,0.0,0.0,93,0.00,,---,0.00,21.00,VWS V14.01,2013-06-28 11:21:00,
2013-06-28 06:26:00,60.6,58.6,29.66,NNW,330,0.0,0.0,93,0.00,,---,0.00,23.00,VWS V14.01,2013-06-28 11:26:00,
2013-06-28 06:31:00,60.8,58.8,29.66,NNW,330,0.0,0.0,93,0.00,,---,0.00,25.00,VWS V14.01,2013-06-28 11:31:00,
2013-06-28 06:36:00,61.1,59.1,29.65,NNW,330,0.0,0.0,93,0.00,,---,0.00,25.00,VWS V14.01,2013-06-28 11:36:00,
2013-06-28 06:41:00,61.5,59.5,29.65,NNW,330,0.0,0.0,93,0.00,,---,0.00,26.00,VWS V14.01,2013-06-28 11:41:00,
2013-06-28 06:46:00,61.8,59.8,29.65,NNW,330,0.0,0.0,93,0.00,,---,0.00,35.00,VWS V14.01,2013-06-28 11:46:00,
2013-06-28 06:51:00,62.2,60.2,29.65,NNW,330,0.0,1.0,93,0.00,,---,0.00,56.00,VWS V14.01,2013-06-28 11:51:00,
2013-06-28 06:56:00,62.6,60.2,29.65,NNW,330,0.0,1.0,92,0.00,,---,0.00,91.00,VWS V14.01,2013-06-28 11:56:00,
2013-06-28 07:00:00,62.8,60.5,29.65,NNW,330,1.0,1.0,92,0.00,,---,0.00,113.00,VWS V14.01,2013-06-28 12:00:00,
2013-06-28 07:01:00,63.0,60.6,29.65,NNW,330,0.0,1.0,92,0.00,,---,0.00,135.00,VWS V14.01,2013-06-28 12:01:00,
2013-06-28 07:06:00,63.4,60.4,29.65,NW,307,1.0,4.0,90,0.00,,---,0.00,181.00,VWS V14.01,2013-06-28 12:06:00,
2013-06-28 07:11:00,64.2,60.6,29.65,SW,226,1.0,4.0,88,0.00,,---,0.00,209.00,VWS V14.01,2013-06-28 12:11:00,
2013-06-28 07:16:00,64.9,60.3,29.65,North,5,3.0,4.0,85,0.00,,---,0.00,234.00,VWS V14.01,2013-06-28 12:16:00,
2013-06-28 07:21:00,65.7,60.4,29.64,WSW,244,0.0,5.0,83,0.00,,---,0.00,258.00,VWS V14.01,2013-06-28 12:21:00,
2013-06-28 07:26:00,66.4,60.4,29.64,South,176,1.0,5.0,81,0.00,,---,0.00,278.00,VWS V14.01,2013-06-28 12:26:00,
2013-06-28 07:31:00,67.0,60.3,29.64,West,269,1.0,5.0,79,0.00,,---,0.00,294.00,VWS V14.01,2013-06-28 12:31:00,
2013-06-28 07:36:00,67.6,60.5,29.64,South,173,1.0,5.0,78,0.00,,---,0.00,309.00,VWS V14.01,2013-06-28 12:36:00,
2013-06-28 07:41:00,67.9,60.4,29.64,WNW,298,3.0,5.0,77,0.00,,---,0.00,322.00,VWS V14.01,2013-06-28 12:41:00,
2013-06-28 07:46:00,68.2,60.0,29.64,NW,316,4.0,6.0,75,0.00,,---,0.00,339.00,VWS V14.01,2013-06-28 12:46:00,
2013-06-28 07:51:00,68.6,60.7,29.64,NW,314,2.0,6.0,76,0.00,,---,0.00,355.00,VWS V14.01,2013-06-28 12:51:00,
2013-06-28 07:56:00,68.9,60.3,29.64,North,355,3.0,7.0,74,0.00,,---,0.00,371.00,VWS V14.01,2013-06-28 12:56:00,
2013-06-28 08:00:00,69.2,60.6,29.64,WNW,292,0.0,7.0,74,0.00,,---,0.00,381.00,VWS V14.01,2013-06-28 13:00:00,
2013-06-28 08:01:00,69.3,60.7,29.64,West,273,2.0,6.0,74,0.00,,---,0.00,388.00,VWS V14.01,2013-06-28 13:01:00,
2013-06-28 08:06:00,69.8,61.5,29.64,NW,309,3.0,6.0,75,0.00,,---,0.00,404.00,VWS V14.01,2013-06-28 13:06:00,
2013-06-28 08:11:00,70.2,61.2,29.64,WNW,294,1.0,6.0,73,0.00,,---,0.00,418.00,VWS V14.01,2013-06-28 13:11:00,
2013-06-28 08:16:00,70.8,61.3,29.64,WSW,238,1.0,7.0,72,0.00,,---,0.00,431.00,VWS V14.01,2013-06-28 13:16:00,
2013-06-28 08:21:00,71.1,60.4,29.63,West,272,1.0,7.0,69,0.00,,---,0.00,448.00,VWS V14.01,2013-06-28 13:21:00,
2013-06-28 08:26:00,71.5,61.2,29.63,NW,322,2.0,7.0,70,0.00,,---,0.00,461.00,VWS V14.01,2013-06-28 13:26:00,
2013-06-28 08:31:00,72.0,61.3,29.63,WNW,294,2.0,10.0,69,0.00,,---,0.00,476.00,VWS V14.01,2013-06-28 13:31:00,
2013-06-28 08:36:00,72.3,60.7,29.63,NNE,12,3.0,10.0,67,0.00,,---,0.00,494.00,VWS V14.01,2013-06-28 13:36:00,
2013-06-28 08:41:00,72.6,61.0,29.63,NW,324,1.0,10.0,67,0.00,,---,0.00,506.00,VWS V14.01,2013-06-28 13:41:00,
2013-06-28 08:46:00,73.1,61.1,29.63,NW,317,7.0,10.0,66,0.00,,---,0.00,519.00,VWS V14.01,2013-06-28 13:46:00,
2013-06-28 08:51:00,73.3,61.3,29.63,North,5,0.0,10.0,66,0.00,,---,0.00,533.00,VWS V14.01,2013-06-28 13:51:00,
2013-06-28 08:56:00,73.6,61.5,29.62,North,5,5.0,10.0,66,0.00,,---,0.00,547.00,VWS V14.01,2013-06-28 13:56:00,
2013-06-28 09:00:00,73.8,60.9,29.62,North,360,2.0,10.0,64,0.00,,---,0.00,559.00,VWS V14.01,2013-06-28 14:00:00,
2013-06-28 09:01:00,73.8,60.9,29.62,SW,219,2.0,5.0,64,0.00,,---,0.00,563.00,VWS V14.01,2013-06-28 14:01:00,
2013-06-28 09:06:00,73.9,61.4,29.62,NNE,15,4.0,8.0,65,0.00,,---,0.00,577.00,VWS V14.01,2013-06-28 14:06:00,
2013-06-28 09:11:00,74.2,61.2,29.62,NW,323,4.0,8.0,64,0.00,,---,0.00,591.00,VWS V14.01,2013-06-28 14:11:00,
2013-06-28 09:16:00,74.3,61.8,29.61,WNW,295,3.0,8.0,65,0.00,,---,0.00,605.00,VWS V14.01,2013-06-28 14:16:00,
2013-06-28 09:21:00,74.6,61.6,29.61,North,355,2.0,8.0,64,0.00,,---,0.00,617.00,VWS V14.01,2013-06-28 14:21:00,
2013-06-28 09:26:00,74.5,61.1,29.61,North,350,1.0,9.0,63,0.00,,---,0.00,631.00,VWS V14.01,2013-06-28 14:26:00,
2013-06-28 09:31:00,74.9,61.0,29.61,NNW,341,4.0,9.0,62,0.00,,---,0.00,649.00,VWS V14.01,2013-06-28 14:31:00,
2013-06-28 09:36:00,75.2,61.8,29.61,West,271,5.0,10.0,63,0.00,,---,0.00,664.00,VWS V14.01,2013-06-28 14:36:00,
2013-06-28 09:41:00,75.7,61.3,29.61,North,355,11.0,11.0,61,0.00,,---,0.00,682.00,VWS V14.01,2013-06-28 14:41:00,
2013-06-28 09:46:00,75.5,62.0,29.60,North,349,4.0,11.0,63,0.00,,---,0.00,744.00,VWS V14.01,2013-06-28 14:46:00,
2013-06-28 09:51:00,75.4,61.5,29.60,SW,231,2.0,11.0,62,0.00,,---,0.00,758.00,VWS V14.01,2013-06-28 14:51:00,
2013-06-28 09:56:00,75.7,62.2,29.61,North,360,3.0,11.0,63,0.00,,---,0.00,125.00,VWS V14.01,2013-06-28 14:56:00,
2013-06-28 10:00:00,75.3,60.9,29.61,WNW,295,6.0,11.0,61,0.00,,---,0.00,213.00,VWS V14.01,2013-06-28 15:00:00,
2013-06-28 10:01:00,75.1,61.7,29.61,WSW,245,4.0,6.0,63,0.00,,---,0.00,788.00,VWS V14.01,2013-06-28 15:01:00,
2013-06-28 10:06:00,75.7,62.7,29.61,SW,222,6.0,8.0,64,0.00,,---,0.00,823.00,VWS V14.01,2013-06-28 15:06:00,
2013-06-28 10:10:00,76.1,60.8,29.60,WSW,237,5.0,9.0,59,0.00,,---,0.00,803.00,VWS V14.01,2013-06-28 15:10:00,
2013-06-28 10:15:00,76.2,60.8,29.60,NNW,327,4.0,9.0,59,0.00,,---,0.00,260.00,VWS V14.01,2013-06-28 15:15:00,
2013-06-28 10:20:00,75.8,60.9,29.60,WSW,258,1.0,10.0,60,0.00,,---,0.00,257.00,VWS V14.01,2013-06-28 15:20:00,
2013-06-28 10:25:00,75.5,60.7,29.61,NNW,340,4.0,11.0,60,0.00,,---,0.00,1088.00,VWS V14.01,2013-06-28 15:25:00,
2013-06-28 10:31:00,75.6,60.3,29.60,SSW,194,4.0,11.0,59,0.00,,---,0.00,290.00,VWS V14.01,2013-06-28 15:31:00,
2013-06-28 10:36:00,74.7,60.4,29.60,SW,231,3.0,11.0,61,0.00,,---,0.00,227.00,VWS V14.01,2013-06-28 15:36:00,
2013-06-28 10:41:00,74.3,60.5,29.60,South,178,3.0,11.0,62,0.00,,---,0.00,294.00,VWS V14.01,2013-06-28 15:41:00,
2013-06-28 10:45:00,74.3,60.9,29.61,SW,216,4.0,11.0,63,0.00,,---,0.00,216.00,VWS V14.01,2013-06-28 15:45:00,
2013-06-28 10:50:00,73.9,61.0,29.61,North,5,2.0,11.0,64,0.00,,---,0.00,243.00,VWS V14.01,2013-06-28 15:50:00,
2013-06-28 10:51:00,73.9,61.0,29.61,North,5,2.0,11.0,64,0.00,,---,0.00,243.00,VWS V14.01,2013-06-28 15:51:00,
2013-06-28 10:56:00,73.9,61.0,29.61,NW,322,3.0,11.0,64,0.00,,---,0.00,397.00,VWS V14.01,2013-06-28 15:56:00,
2013-06-28 11:00:00,74.5,61.1,29.61,SW,229,1.0,11.0,63,0.00,,---,0.00,427.00,VWS V14.01,2013-06-28 16:00:00,
2013-06-28 11:01:00,74.8,61.8,29.61,WNW,294,8.0,8.0,64,0.00,,---,0.00,427.00,VWS V14.01,2013-06-28 16:01:00,
2013-06-28 11:06:00,74.5,61.1,29.61,SSW,196,5.0,9.0,63,0.00,,---,0.00,397.00,VWS V14.01,2013-06-28 16:06:00,
2013-06-28 11:11:00,74.6,62.1,29.60,NNW,331,8.0,9.0,65,0.00,,---,0.00,1155.00,VWS V14.01,2013-06-28 16:11:00,
2013-06-28 11:15:00,75.8,62.8,29.61,WSW,253,9.0,9.0,64,0.00,,---,0.00,325.00,VWS V14.01,2013-06-28 16:15:00,
2013-06-28 11:20:00,75.2,61.3,29.61,WSW,257,3.0,9.0,62,0.00,,---,0.00,294.00,VWS V14.01,2013-06-28 16:20:00,
2013-06-28 11:25:00,74.5,61.5,29.61,SW,221,3.0,9.0,64,0.00,,---,0.00,246.00,VWS V14.01,2013-06-28 16:25:00,
2013-06-28 11:30:00,74.0,61.5,29.61,North,5,6.0,11.0,65,0.00,,---,0.00,253.00,VWS V14.01,2013-06-28 16:30:00,
2013-06-28 11:35:00,74.0,61.9,29.61,North,11,6.0,11.0,66,0.00,,---,0.00,362.00,VWS V14.01,2013-06-28 16:35:00,
2013-06-28 11:40:00,74.0,61.5,29.61,NNW,330,5.0,11.0,65,0.00,,---,0.00,239.00,VWS V14.01,2013-06-28 16:40:00,
2013-06-28 11:45:00,74.0,61.1,29.62,North,355,6.0,11.0,64,0.00,,---,0.00,186.00,VWS V14.01,2013-06-28 16:45:00,
2013-06-28 11:50:00,73.4,60.9,29.61,WSW,255,2.0,11.0,65,0.00,,---,0.00,267.00,VWS V14.01,2013-06-28 16:50:00,
2013-06-28 11:55:00,73.5,60.6,29.62,NNE,16,3.0,11.0,64,0.00,,---,0.00,390.00,VWS V14.01,2013-06-28 16:55:00,
2013-06-28 12:00:00,73.8,60.9,29.61,SW,219,8.0,9.0,64,0.00,,---,0.00,315.00,VWS V14.01,2013-06-28 17:00:00,
2013-06-28 12:05:00,73.4,60.9,29.61,NNW,344,3.0,9.0,65,0.00,,---,0.00,211.00,VWS V14.01,2013-06-28 17:05:00,
2013-06-28 12:10:00,73.2,60.7,29.62,North,10,1.0,9.0,65,0.00,,---,0.00,214.00,VWS V14.01,2013-06-28 17:10:00,
2013-06-28 12:15:00,72.7,60.7,29.62,South,183,1.0,9.0,66,0.00,,---,0.00,197.00,VWS V14.01,2013-06-28 17:15:00,
2013-06-28 12:20:00,72.8,60.8,29.62,NNW,347,3.0,9.0,66,0.00,,---,0.00,279.00,VWS V14.01,2013-06-28 17:20:00,
2013-06-28 12:25:00,72.8,60.8,29.61,North,5,0.0,9.0,66,0.00,,---,0.00,424.00,VWS V14.01,2013-06-28 17:25:00,
2013-06-28 12:30:00,73.5,61.9,29.61,North,355,2.0,9.0,67,0.00,,---,0.00,526.00,VWS V14.01,2013-06-28 17:30:00,
2013-06-28 12:35:00,74.0,61.5,29.61,NNW,341,6.0,9.0,65,0.00,,---,0.00,452.00,VWS V14.01,2013-06-28 17:35:00,
2013-06-28 12:40:00,73.5,61.0,29.61,North,350,4.0,9.0,65,0.00,,---,0.00,431.00,VWS V14.01,2013-06-28 17:40:00,
2013-06-28 12:45:00,73.6,62.0,29.61,WNW,283,5.0,9.0,67,0.00,,---,0.00,301.00,VWS V14.01,2013-06-28 17:45:00,
2013-06-28 12:50:00,73.7,62.1,29.62,North,355,9.0,9.0,67,0.00,,---,0.00,51.00,VWS V14.01,2013-06-28 17:50:00,
2013-06-28 12:55:00,72.0,63.7,29.63,West,277,1.0,9.0,75,0.00,,---,0.00,83.00,VWS V14.01,2013-06-28 17:55:00,
2013-06-28 13:00:00,68.2,62.5,29.63,NNW,337,5.0,6.0,82,0.03,,---,0.03,165.00,VWS V14.01,2013-06-28 18:00:00,
2013-06-28 13:05:00,66.1,62.5,29.63,West,280,2.0,6.0,88,0.04,,---,0.04,295.00,VWS V14.01,2013-06-28 18:05:00,
2013-06-28 13:10:00,65.8,63.1,29.63,NW,321,4.0,7.0,91,0.05,,---,0.05,316.00,VWS V14.01,2013-06-28 18:10:00,
2013-06-28 13:15:00,66.1,63.7,29.62,SSW,212,0.0,7.0,92,0.05,,---,0.05,455.00,VWS V14.01,2013-06-28 18:15:00,
2013-06-28 13:20:00,67.6,65.8,29.62,NNW,338,2.0,7.0,94,0.05,,---,0.05,710.00,VWS V14.01,2013-06-28 18:20:00,
2013-06-28 13:25:00,68.3,66.2,29.62,WSW,251,3.0,7.0,93,0.05,,---,0.05,441.00,VWS V14.01,2013-06-28 18:25:00,
2013-06-28 13:30:00,67.9,64.5,29.62,NW,315,5.0,8.0,89,0.05,,---,0.05,459.00,VWS V14.01,2013-06-28 18:30:00,
2013-06-28 13:35:00,69.3,66.9,29.62,NNW,338,1.0,8.0,92,0.05,,---,0.05,983.00,VWS V14.01,2013-06-28 18:35:00,
2013-06-28 13:40:00,70.9,66.5,29.61,WSW,252,5.0,8.0,86,0.05,,---,0.05,554.00,VWS V14.01,2013-06-28 18:40:00,
2013-06-28 13:45:00,70.8,66.1,29.61,WSW,240,1.0,8.0,85,0.05,,---,0.05,691.00,VWS V14.01,2013-06-28 18:45:00,
2013-06-28 13:50:00,71.5,66.8,29.61,WSW,240,1.0,8.0,85,0.05,,---,0.05,462.00,VWS V14.01,2013-06-28 18:50:00,
2013-06-28 13:55:00,72.4,66.2,29.61,SSE,162,2.0,9.0,81,0.05,,---,0.05,689.00,VWS V14.01,2013-06-28 18:55:00,
2013-06-28 14:00:00,72.3,65.8,29.61,NNW,341,4.0,7.0,80,0.03,,---,0.05,374.00,VWS V14.01,2013-06-28 19:00:00,
2013-06-28 14:05:00,72.0,65.5,29.61,WNW,293,3.0,12.0,80,0.03,,---,0.05,216.00,VWS V14.01,2013-06-28 19:05:00,
2013-06-28 14:10:00,72.0,65.9,29.61,NNW,340,3.0,12.0,81,0.03,,---,0.05,81.00,VWS V14.01,2013-06-28 19:10:00,
2013-06-28 14:15:00,71.9,65.8,29.61,WSW,244,3.0,12.0,81,0.04,,---,0.06,44.00,VWS V14.01,2013-06-28 19:15:00,
2013-06-28 14:20:00,69.9,64.2,29.61,South,188,3.0,12.0,82,0.12,,---,0.14,70.00,VWS V14.01,2013-06-28 19:20:00,
2013-06-28 14:25:00,67.7,63.4,29.61,West,275,2.0,12.0,86,0.14,,---,0.16,153.00,VWS V14.01,2013-06-28 19:25:00,
2013-06-28 14:30:00,67.0,64.9,29.61,NNW,329,2.0,12.0,93,0.14,,---,0.16,988.00,VWS V14.01,2013-06-28 19:30:00,
2013-06-28 14:35:00,68.4,66.6,29.60,WSW,245,3.0,12.0,94,0.14,,---,0.16,997.00,VWS V14.01,2013-06-28 19:35:00,
2013-06-28 14:40:00,68.7,66.6,29.61,NNW,343,2.0,12.0,93,0.14,,---,0.16,610.00,VWS V14.01,2013-06-28 19:40:00,
2013-06-28 14:45:00,69.6,68.1,29.61,North,5,2.0,12.0,95,0.14,,---,0.16,650.00,VWS V14.01,2013-06-28 19:45:00,
2013-06-28 14:50:00,70.4,67.3,29.60,WSW,246,3.0,12.0,90,0.14,,---,0.16,513.00,VWS V14.01,2013-06-28 19:50:00,
2013-06-28 14:55:00,70.8,67.1,29.60,WSW,248,1.0,12.0,88,0.14,,---,0.16,482.00,VWS V14.01,2013-06-28 19:55:00,
2013-06-28 15:00:00,71.3,66.9,29.60,South,184,2.0,7.0,86,0.11,,---,0.16,1009.00,VWS V14.01,2013-06-28 20:00:00,
2013-06-28 15:05:00,71.8,66.7,29.60,WNW,292,2.0,7.0,84,0.11,,---,0.16,290.00,VWS V14.01,2013-06-28 20:05:00,
2013-06-28 15:10:00,72.1,67.3,29.60,North,355,1.0,7.0,85,0.11,,---,0.16,1116.00,VWS V14.01,2013-06-28 20:10:00,
2013-06-28 15:15:00,73.1,67.3,29.60,North,5,3.0,7.0,82,0.11,,---,0.16,211.00,VWS V14.01,2013-06-28 20:15:00,
2013-06-28 15:20:00,73.4,66.9,29.59,NNE,19,5.0,7.0,80,0.11,,---,0.16,847.00,VWS V14.01,2013-06-28 20:20:00,
2013-06-28 15:25:00,73.9,67.0,29.59,WSW,250,5.0,7.0,79,0.11,,---,0.16,851.00,VWS V14.01,2013-06-28 20:25:00,
2013-06-28 15:30:00,74.3,65.5,29.59,North,11,4.0,9.0,74,0.11,,---,0.16,951.00,VWS V14.01,2013-06-28 20:30:00,
2013-06-28 15:35:00,74.0,65.6,29.59,North,360,1.0,9.0,75,0.11,,---,0.16,933.00,VWS V14.01,2013-06-28 20:35:00,
2013-06-28 15:40:00,74.4,66.3,29.59,West,275,3.0,9.0,76,0.11,,---,0.16,144.00,VWS V14.01,2013-06-28 20:40:00,
2013-06-28 15:45:00,73.4,66.9,29.59,WNW,290,0.0,9.0,80,0.12,,---,0.17,69.00,VWS V14.01,2013-06-28 20:45:00,
2013-06-28 15:50:00,71.6,65.8,29.59,North,355,0.0,9.0,82,0.20,,---,0.25,195.00,VWS V14.01,2013-06-28 20:50:00,
2013-06-28 15:55:00,69.9,67.5,29.59,NW,304,2.0,9.0,92,0.20,,---,0.25,868.00,VWS V14.01,2013-06-28 20:55:00,
2013-06-28 16:00:00,70.5,68.1,29.59,North,360,0.0,3.0,92,0.09,,---,0.25,773.00,VWS V14.01,2013-06-28 21:00:00,
2013-06-28 16:05:00,71.1,68.0,29.59,NNE,24,1.0,8.0,90,0.09,,---,0.25,766.00,VWS V14.01,2013-06-28 21:05:00,
2013-06-28 16:10:00,71.8,68.1,29.59,WSW,248,1.0,10.0,88,0.09,,---,0.25,786.00,VWS V14.01,2013-06-28 21:10:00,
2013-06-28 16:15:00,72.4,68.0,29.59,WSW,246,4.0,10.0,86,0.09,,---,0.25,784.00,VWS V14.01,2013-06-28 21:15:00,
2013-06-28 16:20:00,73.8,68.3,29.59,NNE,19,1.0,10.0,83,0.09,,---,0.25,227.00,VWS V14.01,2013-06-28 21:20:00,
2013-06-28 16:25:00,73.4,67.9,29.59,North,5,3.0,10.0,83,0.09,,---,0.25,756.00,VWS V14.01,2013-06-28 21:25:00,
2013-06-28 16:30:00,74.4,69.3,29.58,NW,321,0.0,10.0,84,0.09,,---,0.25,737.00,VWS V14.01,2013-06-28 21:30:00,
2013-06-28 16:35:00,75.4,67.7,29.58,NNW,336,3.0,10.0,77,0.09,,---,0.25,163.00,VWS V14.01,2013-06-28 21:35:00,
2013-06-28 16:40:00,74.6,66.2,29.58,WNW,298,1.0,10.0,75,0.09,,---,0.25,218.00,VWS V14.01,2013-06-28 21:40:00,
2013-06-28 16:45:00,75.2,67.5,29.58,South,173,1.0,10.0,77,0.09,,---,0.25,752.00,VWS V14.01,2013-06-28 21:45:00,
2013-06-28 16:50:00,75.6,66.7,29.58,WSW,241,3.0,10.0,74,0.09,,---,0.25,847.00,VWS V14.01,2013-06-28 21:50:00,
2013-06-28 16:55:00,76.5,67.2,29.58,NNW,337,2.0,10.0,73,0.09,,---,0.25,882.00,VWS V14.01,2013-06-28 21:55:00,
2013-06-28 17:00:00,77.4,66.9,29.59,WSW,237,3.0,4.0,70,0.00,,---,0.25,457.00,VWS V14.01,2013-06-28 22:00:00,
2013-06-28 17:05:00,76.1,66.0,29.59,NE,50,3.0,9.0,71,0.00,,---,0.25,285.00,VWS V14.01,2013-06-28 22:05:00,
2013-06-28 17:10:00,75.1,65.9,29.59,SSE,151,4.0,9.0,73,0.00,,---,0.25,304.00,VWS V14.01,2013-06-28 22:10:00,
2013-06-28 17:15:00,74.4,66.0,29.59,NNW,345,3.0,10.0,75,0.00,,---,0.25,98.00,VWS V14.01,2013-06-28 22:15:00,
2013-06-28 17:20:00,73.9,65.9,29.59,WNW,296,2.0,10.0,76,0.00,,---,0.25,70.00,VWS V14.01,2013-06-28 22:20:00,
2013-06-28 17:25:00,72.5,66.0,29.59,North,360,3.0,11.0,80,0.01,,---,0.26,151.00,VWS V14.01,2013-06-28 22:25:00,
2013-06-28 17:30:00,70.2,65.5,29.59,NNW,329,2.0,11.0,85,0.01,,---,0.26,290.00,VWS V14.01,2013-06-28 22:30:00,
2013-06-28 17:35:00,71.1,67.7,29.59,North,355,3.0,11.0,89,0.01,,---,0.26,638.00,VWS V14.01,2013-06-28 22:35:00,
2013-06-28 17:40:00,71.2,66.8,29.59,North,351,3.0,11.0,86,0.01,,---,0.26,536.00,VWS V14.01,2013-06-28 22:40:00,
2013-06-28 17:45:00,71.2,67.1,29.59,North,355,0.0,11.0,87,0.01,,---,0.26,81.00,VWS V14.01,2013-06-28 22:45:00,
2013-06-28 17:50:00,71.2,67.1,29.59,NNW,332,1.0,11.0,87,0.01,,---,0.26,35.00,VWS V14.01,2013-06-28 22:50:00,
2013-06-28 17:55:00,71.2,66.8,29.59,NW,313,1.0,11.0,86,0.01,,---,0.26,35.00,VWS V14.01,2013-06-28 22:55:00,
2013-06-28 18:00:00,71.2,66.8,29.59,NW,310,2.0,5.0,86,0.01,,---,0.26,18.00,VWS V14.01,2013-06-28 23:00:00,
2013-06-28 18:05:00,70.9,66.5,29.59,WNW,290,5.0,6.0,86,0.07,,---,0.32,54.00,VWS V14.01,2013-06-28 23:05:00,
2013-06-28 18:10:00,69.9,65.5,29.59,WNW,287,2.0,7.0,86,0.07,,---,0.32,109.00,VWS V14.01,2013-06-28 23:10:00,
2013-06-28 18:15:00,69.3,65.3,29.60,North,360,2.0,7.0,87,0.08,,---,0.33,72.00,VWS V14.01,2013-06-28 23:15:00,
2013-06-28 18:20:00,69.0,65.6,29.60,North,9,3.0,7.0,89,0.08,,---,0.33,32.00,VWS V14.01,2013-06-28 23:20:00,
2013-06-28 18:25:00,68.8,65.4,29.59,West,271,2.0,7.0,89,0.08,,---,0.33,42.00,VWS V14.01,2013-06-28 23:25:00,
2013-06-28 18:30:00,68.5,65.5,29.59,NW,305,0.0,7.0,90,0.08,,---,0.33,21.00,VWS V14.01,2013-06-28 23:30:00,
2013-06-28 18:35:00,68.4,65.4,29.59,NNW,334,2.0,7.0,90,0.09,,---,0.34,14.00,VWS V14.01,2013-06-28 23:35:00,
2013-06-28 18:40:00,68.2,65.2,29.59,North,355,0.0,7.0,90,0.10,,---,0.35,11.00,VWS V14.01,2013-06-28 23:40:00,
2013-06-28 18:45:00,68.0,65.3,29.59,NNW,332,0.0,7.0,91,0.11,,---,0.36,11.00,VWS V14.01,2013-06-28 23:45:00,
2013-06-28 18:50:00,67.9,65.2,29.59,North,360,3.0,7.0,91,0.12,,---,0.37,12.00,VWS V14.01,2013-06-28 23:50:00,
2013-06-28 18:55:00,67.8,65.4,29.59,NNW,340,1.0,7.0,92,0.13,,---,0.38,19.00,VWS V14.01,2013-06-28 23:55:00,
2013-06-28 19:00:00,67.7,65.3,29.59,NE,43,0.0,2.0,92,0.12,,---,0.38,19.00,VWS V14.01,2013-06-29 00:00:00,
2013-06-28 19:05:00,67.6,65.2,29.59,North,5,1.0,4.0,92,0.13,,---,0.39,25.00,VWS V14.01,2013-06-29 00:05:00,
2013-06-28 19:10:00,67.6,65.2,29.59,North,5,0.0,4.0,92,0.13,,---,0.39,33.00,VWS V14.01,2013-06-29 00:10:00,
2013-06-28 19:15:00,67.5,65.4,29.59,NW,318,1.0,4.0,93,0.13,,---,0.39,40.00,VWS V14.01,2013-06-29 00:15:00,
2013-06-28 19:20:00,67.5,65.4,29.60,NW,318,0.0,4.0,93,0.13,,---,0.39,42.00,VWS V14.01,2013-06-29 00:20:00,
2013-06-28 19:25:00,67.6,65.5,29.60,NW,312,0.0,4.0,93,0.13,,---,0.39,39.00,VWS V14.01,2013-06-29 00:25:00,
2013-06-28 19:30:00,67.6,65.5,29.61,NW,312,0.0,4.0,93,0.13,,---,0.39,37.00,VWS V14.01,2013-06-29 00:30:00,
2013-06-28 19:35:00,67.6,65.8,29.61,NW,312,0.0,4.0,94,0.13,,---,0.39,33.00,VWS V14.01,2013-06-29 00:35:00,
2013-06-28 19:40:00,67.6,65.8,29.61,NW,312,0.0,4.0,94,0.13,,---,0.39,32.00,VWS V14.01,2013-06-29 00:40:00,
2013-06-28 19:45:00,67.7,65.9,29.61,NW,312,0.0,4.0,94,0.13,,---,0.39,30.00,VWS V14.01,2013-06-29 00:45:00,
2013-06-28 19:50:00,67.7,65.9,29.61,WNW,294,0.0,4.0,94,0.13,,---,0.39,30.00,VWS V14.01,2013-06-29 00:50:00,
2013-06-28 19:55:00,67.7,65.9,29.61,WNW,293,0.0,4.0,94,0.13,,---,0.39,28.00,VWS V14.01,2013-06-29 00:55:00,
2013-06-28 20:00:00,67.6,65.8,29.61,WNW,293,0.0,1.0,94,0.01,,---,0.39,25.00,VWS V14.01,2013-06-29 01:00:00,
2013-06-28 20:05:00,67.6,65.8,29.60,WNW,293,0.0,2.0,94,0.01,,---,0.39,21.00,VWS V14.01,2013-06-29 01:05:00,
2013-06-28 20:10:00,67.6,65.8,29.60,WNW,293,0.0,2.0,94,0.01,,---,0.39,19.00,VWS V14.01,2013-06-29 01:10:00,
2013-06-28 20:15:00,67.5,65.7,29.60,WNW,294,0.0,2.0,94,0.01,,---,0.39,19.00,VWS V14.01,2013-06-29 01:15:00,
2013-06-28 20:20:00,67.5,65.7,29.60,WNW,293,0.0,2.0,94,0.01,,---,0.39,18.00,VWS V14.01,2013-06-29 01:20:00,
2013-06-28 20:25:00,67.4,65.6,29.60,WNW,293,0.0,2.0,94,0.01,,---,0.39,16.00,VWS V14.01,2013-06-29 01:25:00,
2013-06-28 20:30:00,67.4,65.6,29.60,WNW,293,0.0,2.0,94,0.01,,---,0.39,12.00,VWS V14.01,2013-06-29 01:30:00,
2013-06-28 20:35:00,67.4,65.6,29.60,WNW,293,0.0,2.0,94,0.01,,---,0.39,7.00,VWS V14.01,2013-06-29 01:35:00,
2013-06-28 20:40:00,67.3,65.5,29.60,WNW,293,0.0,2.0,94,0.01,,---,0.39,0.00,VWS V14.01,2013-06-29 01:40:00,
2013-06-28 20:45:00,67.2,65.4,29.60,WNW,293,0.0,2.0,94,0.01,,---,0.39,0.00,VWS V14.01,2013-06-29 01:45:00,
2013-06-28 20:50:00,67.1,65.3,29.60,NNW,333,0.0,2.0,94,0.01,,---,0.39,0.00,VWS V14.01,2013-06-29 01:50:00,
2013-06-28 20:55:00,66.8,65.0,29.61,NW,316,0.0,5.0,94,0.01,,---,0.39,0.00,VWS V14.01,2013-06-29 01:55:00,
2013-06-28 21:00:00,66.5,64.7,29.61,NNE,19,2.0,3.0,94,0.00,,---,0.39,0.00,VWS V14.01,2013-06-29 02:00:00,
2013-06-28 21:05:00,66.3,64.5,29.61,NNW,341,0.0,4.0,94,0.00,,---,0.39,0.00,VWS V14.01,2013-06-29 02:05:00,
2013-06-28 21:10:00,66.1,64.3,29.61,NNW,335,2.0,4.0,94,0.00,,---,0.39,0.00,VWS V14.01,2013-06-29 02:10:00,
2013-06-28 21:15:00,66.0,64.2,29.61,NNW,348,1.0,5.0,94,0.00,,---,0.39,0.00,VWS V14.01,2013-06-29 02:15:00,
2013-06-28 21:20:00,65.8,63.7,29.61,NNW,332,2.0,5.0,93,0.00,,---,0.39,0.00,VWS V14.01,2013-06-29 02:20:00,
2013-06-28 21:25:00,65.6,63.5,29.62,NW,315,2.0,5.0,93,0.00,,---,0.39,0.00,VWS V14.01,2013-06-29 02:25:00,
2013-06-28 21:30:00,65.5,63.7,29.62,North,11,0.0,5.0,94,0.00,,---,0.39,0.00,VWS V14.01,2013-06-29 02:30:00,
2013-06-28 21:35:00,65.4,63.6,29.62,North,10,0.0,5.0,94,0.00,,---,0.39,0.00,VWS V14.01,2013-06-29 02:35:00,
2013-06-28 21:40:00,65.4,63.6,29.62,WNW,284,2.0,5.0,94,0.00,,---,0.39,0.00,VWS V14.01,2013-06-29 02:40:00,
2013-06-28 21:45:00,65.3,63.5,29.62,WNW,286,0.0,5.0,94,0.00,,---,0.39,0.00,VWS V14.01,2013-06-29 02:45:00,
2013-06-28 21:50:00,65.3,63.5,29.62,North,360,1.0,5.0,94,0.00,,---,0.39,0.00,VWS V14.01,2013-06-29 02:50:00,
2013-06-28 21:55:00,65.2,63.4,29.62,North,360,0.0,5.0,94,0.00,,---,0.39,0.00,VWS V14.01,2013-06-29 02:55:00,
2013-06-28 22:00:00,65.1,63.3,29.62,North,360,0.0,2.0,94,0.00,,---,0.39,0.00,VWS V14.01,2013-06-29 03:00:00,
2013-06-28 22:05:00,65.1,63.3,29.61,North,360,0.0,2.0,94,0.00,,---,0.39,0.00,VWS V14.01,2013-06-29 03:05:00,
2013-06-28 22:10:00,65.0,63.2,29.61,North,360,0.0,2.0,94,0.00,,---,0.39,0.00,VWS V14.01,2013-06-29 03:10:00,
2013-06-28 22:15:00,65.0,63.2,29.61,North,360,0.0,2.0,94,0.00,,---,0.39,0.00,VWS V14.01,2013-06-29 03:15:00,
2013-06-28 22:20:00,64.9,63.4,29.61,North,360,0.0,2.0,95,0.00,,---,0.39,0.00,VWS V14.01,2013-06-29 03:20:00,
2013-06-28 22:25:00,64.9,63.4,29.61,North,360,0.0,2.0,95,0.00,,---,0.39,0.00,VWS V14.01,2013-06-29 03:25:00,
2013-06-28 22:30:00,64.9,63.4,29.61,North,360,0.0,2.0,95,0.00,,---,0.39,0.00,VWS V14.01,2013-06-29 03:30:00,
2013-06-28 22:35:00,64.9,63.4,29.61,North,360,0.0,2.0,95,0.00,,---,0.39,0.00,VWS V14.01,2013-06-29 03:35:00,
2013-06-28 22:40:00,65.0,63.5,29.61,North,360,0.0,2.0,95,0.00,,---,0.39,0.00,VWS V14.01,2013-06-29 03:40:00,
2013-06-28 22:45:00,65.0,63.5,29.61,North,360,0.0,2.0,95,0.00,,---,0.39,0.00,VWS V14.01,2013-06-29 03:45:00,
2013-06-28 22:50:00,65.1,63.6,29.61,North,360,1.0,2.0,95,0.00,,---,0.39,0.00,VWS V14.01,2013-06-29 03:50:00,
2013-06-28 22:55:00,65.1,63.6,29.61,NW,325,0.0,3.0,95,0.00,,---,0.39,0.00,VWS V14.01,2013-06-29 03:55:00,
2013-06-28 23:00:00,65.2,64.0,29.61,NW,325,1.0,2.0,96,0.00,,---,0.39,0.00,VWS V14.01,2013-06-29 04:00:00,
2013-06-28 23:01:00,65.2,63.7,29.61,NW,325,0.0,2.0,95,0.00,,---,0.39,0.00,VWS V14.01,2013-06-29 04:01:00,
2013-06-28 23:06:00,65.2,64.0,29.61,NW,325,1.0,2.0,96,0.00,,---,0.39,0.00,VWS V14.01,2013-06-29 04:06:00,
2013-06-28 23:11:00,65.2,64.0,29.61,NW,309,0.0,3.0,96,0.00,,---,0.39,0.00,VWS V14.01,2013-06-29 04:11:00,
2013-06-28 23:16:00,65.2,64.0,29.62,North,355,0.0,3.0,96,0.00,,---,0.39,0.00,VWS V14.01,2013-06-29 04:16:00,
2013-06-28 23:21:00,65.3,64.1,29.62,North,355,0.0,3.0,96,0.00,,---,0.39,0.00,VWS V14.01,2013-06-29 04:21:00,
2013-06-28 23:26:00,65.2,64.0,29.61,North,355,0.0,3.0,96,0.00,,---,0.39,0.00,VWS V14.01,2013-06-29 04:26:00,
2013-06-28 23:31:00,65.2,64.0,29.62,North,355,1.0,3.0,96,0.00,,---,0.39,0.00,VWS V14.01,2013-06-29 04:31:00,
2013-06-28 23:36:00,65.3,64.1,29.62,North,355,0.0,3.0,96,0.00,,---,0.39,0.00,VWS V14.01,2013-06-29 04:36:00,
2013-06-28 23:41:00,65.2,64.0,29.61,North,355,0.0,3.0,96,0.00,,---,0.39,0.00,VWS V14.01,2013-06-29 04:41:00,
2013-06-28 23:46:00,65.2,64.0,29.61,North,355,0.0,3.0,96,0.00,,---,0.39,0.00,VWS V14.01,2013-06-29 04:46:00,
2013-06-28 23:51:00,65.2,64.0,29.61,North,355,0.0,3.0,96,0.00,,---,0.39,0.00,VWS V14.01,2013-06-29 04:51:00,
2013-06-28 23:56:00,65.2,64.0,29.61,North,355,0.0,3.0,96,0.00,,---,0.39,0.00,VWS V14.01,2013-06-29 04:56:00,